DW3478 Weather Reports


Display with metric or nautical units.
time (UTC)temp
F
wind
direction
speed
MPH
gust
MPH
rain 1hr
in
rain 24hr
in
rain mn
in
humidity
%
barometer
mb
20180117004809 60 157 0.0 5.0 0.00 0.00 0.00 70 1027.9
20180117003809 60 157 0.0 2.0 0.00 0.00 0.00 70 1027.8
20180117002809 60 157 1.0 7.0 0.00 0.00 0.00 70 1027.9
20180117001810 59 157 3.0 5.0 0.00 0.00 0.00 71 1027.7
20180117000820 59 157 3.0 5.0 0.00 0.00 0.00 72 1028.0
20180116235810 59 157 2.0 3.0 0.00 0.00 0.00 72 1028.1
20180116234810 58 157 2.0 3.0 0.00 0.00 0.00 73 1028.1
20180116233809 58 157 1.0 3.0 0.00 0.00 0.00 73 1028.2
20180116232810 58 157 2.0 5.0 0.00 0.00 0.00 74 1028.2
20180116231809 58 157 1.0 3.0 0.00 0.00 0.00 75 1028.2
20180116230809 58 157 3.0 5.0 0.00 0.00 0.00 77 1028.3
20180116225810 58 157 2.0 3.0 0.00 0.00 0.00 81 1028.2
20180116224810 57 157 0.0 6.0 0.00 0.00 0.00 81 1028.1
20180116220809 57 157 3.0 5.0 0.00 0.00 0.00 83 1028.5
20180116214809 58 157 1.0 3.0 0.00 0.00 0.00 81 1028.4
20180116212809 59 157 1.0 6.0 0.00 0.00 0.00 81 1028.4
20180116211809 59 157 2.0 9.0 0.00 0.00 0.00 81 1028.5
20180116210809 59 156 3.0 9.0 0.00 0.00 0.00 81 1028.4
20180116205810 58 155 1.0 9.0 0.00 0.00 0.00 81 1028.3
20180116204810 58 153 5.0 10.0 0.00 0.00 0.00 81 1028.4
20180116203809 58 149 2.0 10.0 0.00 0.00 0.00 82 1028.4
20180116202810 58 147 0.0 5.0 0.00 0.00 0.00 82 1028.3
20180116201809 58 147 3.0 5.0 0.00 0.00 0.00 82 1028.4
20180116200809 58 147 0.0 3.0 0.00 0.00 0.00 81 1028.4
20180116193809 58 147 1.0 5.0 0.00 0.00 0.00 79 1028.0
20180116192809 58 147 0.0 2.0 0.00 0.00 0.00 79 1027.9
20180116190809 59 147 0.0 1.0 0.00 0.00 0.00 78 1027.7
20180116185809 59 147 0.0 3.0 0.00 0.00 0.00 77 1027.8
20180116183810 60 147 1.0 6.0 0.00 0.00 0.00 76 1027.9
20180116182809 61 147 1.0 6.0 0.00 0.00 0.00 76 1027.6
20180116174809 62 144 5.0 9.0 0.00 0.00 0.00 72 1027.4
20180116173809 63 144 6.0 12.0 0.00 0.00 0.00 68 1027.5
20180116170810 63 144 5.0 12.0 0.00 0.00 0.00 67 1027.4
20180116164810 63 144 5.0 12.0 0.00 0.00 0.00 67 1027.3
20180116163810 64 144 4.0 13.0 0.00 0.00 0.00 67 1027.2
20180116162809 63 143 6.0 12.0 0.00 0.00 0.00 67 1027.2
20180116160809 64 143 6.0 12.0 0.00 0.00 0.00 64 1027.2
20180116155810 64 143 7.0 12.0 0.00 0.00 0.00 63 1027.3
20180116152810 64 136 6.0 12.0 0.00 0.00 0.00 62 1027.4
20180116151809 64 143 7.0 14.0 0.00 0.00 0.00 63 1027.3
20180116150809 64 148 9.0 12.0 0.00 0.00 0.00 63 1027.3
20180116144809 64 145 6.0 10.0 0.00 0.00 0.00 60 1027.3
20180116142810 64 145 4.0 10.0 0.00 0.00 0.00 59 1027.4
20180116141809 64 144 7.0 12.0 0.00 0.00 0.00 62 1027.6
20180116140809 64 144 2.0 9.0 0.00 0.00 0.00 59 1027.7
20180116134809 64 144 6.0 12.0 0.00 0.00 0.00 65 1028.1
20180116132810 63 140 5.0 12.0 0.00 0.00 0.00 64 1028.6
20180116131809 63 137 9.0 14.0 0.00 0.00 0.00 65 1028.7
20180116130809 64 133 6.0 12.0 0.00 0.00 0.00 66 1029.0
20180116124809 64 125 6.0 9.0 0.00 0.00 0.00 64 1029.2
20180116123809 64 123 3.0 10.0 0.00 0.00 0.00 56 1029.3
20180116122810 63 121 0.0 10.0 0.00 0.00 0.00 55 1029.5
20180116121809 64 120 6.0 9.0 0.00 0.00 0.00 55 1029.6
20180116114809 63 113 5.0 10.0 0.00 0.00 0.00 64 1030.2
20180116113810 63 107 3.0 9.0 0.00 0.00 0.00 62 1030.2
20180116112810 63 107 6.0 10.0 0.00 0.00 0.00 66 1030.1
20180116110809 63 74 5.0 7.0 0.00 0.00 0.00 65 1030.1
20180116104810 63 69 0.0 6.0 0.00 0.00 0.00 50 1029.9
20180116102810 62 75 0.0 12.0 0.00 0.00 0.00 52 1030.1
20180116101810 62 38 2.0 9.0 0.00 0.00 0.00 53 1030.0
20180116094809 61 38 2.0 3.0 0.00 0.01 0.00 56 1029.7
20180116093810 60 38 1.0 5.0 0.00 0.01 0.00 57 1029.7
20180116085810 57 38 3.0 10.0 0.00 0.02 0.00 59 1029.6
20180116084810 57 38 2.0 9.0 0.00 0.02 0.00 61 1029.5
20180116083809 56 38 2.0 12.0 0.00 0.02 0.00 62 1029.4
20180116082810 55 43 2.0 5.0 0.00 0.03 0.00 67 1029.5
20180116080809 55 43 1.0 6.0 0.00 0.03 0.00 66 1029.7
20180116073809 54 43 2.0 6.0 0.00 0.05 0.00 72 1029.5
20180116070809 54 43 3.0 5.0 0.00 0.06 0.00 68 1029.4
20180116065809 55 43 2.0 7.0 0.00 0.06 0.00 67 1029.4
20180116064809 55 43 3.0 5.0 0.00 0.06 0.00 65 1029.3
20180116063809 56 43 3.0 5.0 0.00 0.06 0.00 63 1029.2
20180116055809 57 38 4.0 10.0 0.00 0.08 0.00 61 1029.4
20180116054809 57 40 3.0 10.0 0.00 0.08 0.00 61 1029.3
20180116053809 57 40 5.0 9.0 0.00 0.09 0.00 62 1029.4
20180116052809 57 40 5.0 14.0 0.00 0.09 0.00 62 1029.3
20180116051809 57 41 3.0 14.0 0.00 0.10 0.00 61 1029.1
20180116050810 57 44 6.0 16.0 0.00 0.11 0.00 61 1029.2
20180116042809 57 49 9.0 21.0 0.00 0.12 0.00 62 1029.1
20180116041809 56 41 12.0 20.0 0.00 0.12 0.00 63 1029.2
20180116040809 57 36 8.0 23.0 0.00 0.13 0.00 65 1029.2
20180116035809 57 42 9.0 28.0 0.00 0.13 0.00 64 1029.2
20180116034808 57 44 12.0 22.0 0.00 0.13 0.00 64 1029.3
20180116033808 57 31 13.0 22.0 0.00 0.13 0.00 63 1029.2
20180116031809 57 28 13.0 28.0 0.00 0.13 0.00 64 1029.0
20180116030809 57 47 13.0 25.0 0.00 0.13 0.00 60 1029.2
20180116025809 57 22 13.0 26.0 0.00 0.14 0.00 64 1028.7
20180116024809 57 37 18.0 35.0 0.00 0.14 0.00 65 1028.8
20180116022808 57 39 18.0 26.0 0.00 0.14 0.00 67 1029.1
20180116021808 57 51 22.0 35.0 0.00 0.14 0.00 67 1028.9
20180116020808 56 48 19.0 26.0 0.00 0.14 0.00 69 1028.7
20180116015808 57 44 20.0 28.0 0.00 0.14 0.00 67 1028.7
20180116014809 57 24 21.0 32.0 0.00 0.14 0.00 68 1028.4
20180116013808 57 52 18.0 30.0 0.00 0.14 0.00 68 1028.6
20180116011808 57 51 15.0 24.0 0.00 0.14 0.00 67 1028.7
20180116010808 56 15 4.0 22.0 0.00 0.14 0.00 67 1029.2